Location: Aulnoy
(48.8410°N, 3.0967°E)
Time: 00:24:52
(UTC+00:00)

Envisat - Pass Details

Date: 05 March 2024
Orbit: 762 x 764 km, 98.3° (Epoch: 12 April)

Event Time Altitude Azimuth Distance (km) Brightness Sun altitude
Rises 04:29:13 0° 6° (N) 3,242 6.5 -19.1°
Reaches altitude 10° 04:31:48 10° 355° (N) 2,311 5.6 -18.7°
Maximum altitude 04:36:04 28° 297° (WNW) 1,409 3.9 -18.0°
Enters shadow 04:36:31 28° 288° (WNW) 1,421 3.9 -17.9°
